Location: Contre
(49.7477°N, 2.0963°E)
Time: 13:05:41
(UTC+00:00)

DELTA 2 DEB (DPAF) - Pass Details

Date: 03 February 2023
Orbit: 624 x 629 km, 98.4° (Epoch: 24 March)

Event Time Altitude Azimuth Distance (km) Brightness Sun altitude
Rises 16:23:33 0° 29° (NNE) 2,946 7.0 2.9°
Reaches altitude 10° 16:26:32 10° 51° (NE) 2,039 6.1 2.5°
Drops below altitude 10° 16:32:07 10° 129° (SE) 2,042 6.5 1.7°
Enters shadow 17:40:04 -47° 11° (N) 10,113 10.1 -8.5°
Maximum altitude 18:06:16 65° 288° (WNW) 707 4.6 -12.6°
